This is the latest recevied weather packets stored in our database for station/object N6RDS. If no packets are shown the sender has not sent any weather packets the latest 10 day(s).
| Time | Temp. | Humidity | Pressure | Rain* | Wind** | Luminosity | Snow |
|---|---|---|---|---|---|---|---|
| 1777605162 | 10° C | 34% | 1020.8 hPa | 0 mm | - | 0 W/m² | - |
| 1777604857 | 10° C | 34% | 1021.1 hPa | 0 mm | - | 0 W/m² | - |
| 1777604554 | 10.56° C | 33% | 1020.8 hPa | 0 mm | - | 0 W/m² | - |
| 1777604249 | 11.67° C | 32% | 1020.8 hPa | 0 mm | - | 0 W/m² | - |
| 1777603946 | 12.22° C | 30% | 1020.8 hPa | 0 mm | - | 0 W/m² | - |
| 1777603643 | 12.78° C | 29% | 1020.6 hPa | 0 mm | - | 0 W/m² | - |
| 1777603339 | 12.78° C | 28% | 1020.7 hPa | 0 mm | - | 0 W/m² | - |
| 1777603034 | 12.78° C | 29% | 1020.6 hPa | 0 mm | - | 0 W/m² | - |
| 1777602729 | 12.78° C | 29% | 1020.6 hPa | 0 mm | - | 0 W/m² | - |
| 1777602425 | 12.78° C | 28% | 1020.4 hPa | 0 mm | - | 0 W/m² | - |
| 1777602122 | 13.33° C | 30% | 1020.5 hPa | 0 mm | - | 1 W/m² | - |
| 1777601816 | 13.89° C | 29% | 1020.5 hPa | 0 mm | - | 1 W/m² | - |
| 1777601512 | 13.89° C | 27% | 1020.4 hPa | 0 mm | - | 2 W/m² | - |
| 1777601207 | 14.44° C | 27% | 1020.2 hPa | 0 mm | - | 4 W/m² | - |
| 1777600905 | 14.44° C | 25% | 1020.1 hPa | 0 mm | - | 7 W/m² | - |
| 1777600601 | 15° C | 25% | 1020.2 hPa | 0 mm | - | 10 W/m² | - |
| 1777600297 | 15° C | 25% | 1020.1 hPa | 0 mm | - | 14 W/m² | - |
| 1777599993 | 15° C | 25% | 1020.1 hPa | 0 mm | - | 18 W/m² | - |
| 1777599689 | 15.56° C | 24% | 1019.9 hPa | 0 mm | - | 22 W/m² | - |
| 1777599385 | 15.56° C | 25% | 1020 hPa | 0 mm | - | 26 W/m² | - |
| 1777599083 | 15.56° C | 25% | 1019.9 hPa | 0 mm | - | 32 W/m² | - |
| 1777598780 | 15.56° C | 25% | 1019.7 hPa | 0 mm | - | 33 W/m² | - |
| 1777598475 | 16.11° C | 24% | 1020 hPa | 0 mm | - | 36 W/m² | - |
| 1777598174 | 15.56° C | 25% | 1019.6 hPa | 0 mm | - | 41 W/m² | - |
| 1777597869 | 15.56° C | 25% | 1019.9 hPa | 0 mm | - | 47 W/m² | - |
* Rain latest hour (hover to see other rain measurements)
** Current wind speed in m/s (hover to see current wind gust speed)